Tchien Airport

Jump to: basic info | weather | comments

Related pages: nearby airports | nearby navaids | notams | map

Basic information (top)

Codes: THC GLTN
Location: lon 6.045650, lat -8.138723, elev 790 ft / 241 m msl
Status: small_airport
Scheduled airline service: no
Links: Wikipedia Mobile

Weather (top)

Current conditions for Man Airport 81nm (149km) NNE (rec'd 2013/11/21 04:00Z):

DIMN 210400Z NOL

Airport forecast for Roberts International Airport 133nm (247km) W (rec'd 2014/04/23 18:54Z):

TAF TAF GLRB 231600Z 2318/2424 24008KT 9999 SCT016 FEW025CB 
      TEMPO 2320/2400 32009KT 7000 RA/TSRA SCT003 BKN013 FEW023CB 
      BECMG 2401/2403 VRB03KT 9000 
     FM240600 04005KT 9999 SCT013

Latest comments (top)

No comments yet for Tchien Airport

More... (top)

See also NOTAMs and nearby airports and navaids, or visit the Tchien Airport page at the main OurAirports website..